Station MBIN7 - Masonboro Island, NC (MSNB_S) Image indicating link to RSS feed of recent meteorological observations for station MBIN7


Conditions at MBIN7 as of
(6:30 am EDT)
1030 GMT on 09/01/2026:
     

Click on the graph icon in the table below to see a time series plot of the last five days of that observation.

5-day plot - Wind Direction Wind Direction (WDIR): N ( 360 deg true )
5-day plot - Wind Speed Wind Speed (WSPD): 2 kts
5-day plot - Wind Gust Wind Gust (GST): 3 kts
5-day plot - Atmospheric Pressure Atmospheric Pressure (PRES):30.06 in
5-day plot - Air Temperature Air Temperature (ATMP): 77.0 °F
5-day plot - Dew Point Dew Point (DEWP): 72.5 °F
5-day plot - Wind Speed at 10 Meters Wind Speed at 10 meters (WSPD10M): 2 kts
5-day plot - Wind Speed at 20 Meters Wind Speed at 20 meters (WSPD20M): 4 kts
5-day plot -  Wind Speed, Wind Gust and Atmospheric Pressure Combined plot of Wind Speed, Gust, and Air Pressure
Previous observations
TIME
(EDT)
5-day plot - Wind Direction
WDIR
 
5-day plot - Wind Speed
WSPD
kts
5-day plot - Wind Gust
GST
kts
5-day plot - Wave Height
WVHT
ft
5-day plot - Dominant Wave Period
DPD
sec
5-day plot - Average Wave Period
APD
sec
5-day plot - Mean Wave Direction
MWD
 
5-day plot - Atmospheric Pressure
PRES
in
5-day plot - Pressure Tendency
PTDY
in
5-day plot - Air Temperature
ATMP
°F
5-day plot - Water Temperature
WTMP
°F
5-day plot - Dew Point
DEWP
°F
5-day plot - Salinity
SAL
psu
5-day plot - Visibility
VIS
nmi
5-day plot - Tide (above MLLW)
TIDE
ft
2026-09-01 06:24 am N 2 3----30.06- 77.0- 72.7---
2026-09-01 06:18 am N 2 2----30.06- 77.0- 72.7---
2026-09-01 06:12 am N 2 3----30.06- 77.0- 72.7---
2026-09-01 06:06 am N 2 3----30.06- 77.0- 72.7---
2026-09-01 06:00 am N 2 3----30.05-0.01 77.0- 72.7---
2026-09-01 05:54 am N 2 2----30.05- 77.0- 72.7---
2026-09-01 05:48 am N 2 3----30.05- 77.0- 72.7---
2026-09-01 05:42 am N 3 3----30.05- 77.2- 72.9---
2026-09-01 05:36 am N 3 4----30.05- 77.2- 72.9---
2026-09-01 05:30 am N 2 3----30.05- 77.2- 72.9---
2026-09-01 05:24 am N 2 3----30.05- 77.4- 72.9---
2026-09-01 05:18 am N 2 3----30.06- 77.4- 73.0---
2026-09-01 05:12 amNNW 2 3----30.06- 77.4- 73.0---
2026-09-01 05:06 amNNW 2 4----30.06- 77.4- 73.0---
2026-09-01 05:00 amNNW 3 4----30.06-0.02 77.5- 73.0---
2026-09-01 04:54 amNNW 2 3----30.06- 77.4- 73.0---
2026-09-01 04:48 amNNW 2 3----30.06- 77.5- 73.0---
2026-09-01 04:42 amNNW 3 4----30.06- 77.7- 73.2---
2026-09-01 04:36 amNNW 3 5----30.06- 77.7- 73.2---
2026-09-01 04:30 am N 3 5----30.06- 77.9- 73.4---
2026-09-01 04:24 am N 3 5----30.06- 77.7- 73.4---
2026-09-01 04:18 amNNW 2 4----30.06- 77.9- 73.4---
2026-09-01 04:12 am N 3 4----30.06- 77.7- 73.2---
2026-09-01 04:06 am N 3 4----30.06- 77.9- 73.2---
2026-09-01 04:00 am N 3 4----30.06-0.02 77.9- 73.2---
2026-09-01 03:54 am N 3 4----30.06- 77.9- 73.2---
2026-09-01 03:48 am N 3 5----30.06- 78.1- 73.2---
2026-09-01 03:42 am N 3 5----30.06- 78.1- 73.4---
2026-09-01 03:36 am N 3 4----30.06- 78.3- 73.4---
2026-09-01 03:30 amNNW 3 3----30.06- 78.3- 73.4---
2026-09-01 03:24 am NW 2 3----30.06- 78.3- 73.6---
2026-09-01 03:18 am NW 2 2----30.06- 78.4- 73.6---
2026-09-01 03:12 am NW 2 3----30.06- 78.4- 73.8---
2026-09-01 03:06 amNNW 2 3----30.07- 78.4- 73.8---
2026-09-01 03:00 am NW 2 2----30.07-0.02 78.6- 73.8---
2026-09-01 02:54 amNNW 2 2----30.07- 78.6- 73.8---
2026-09-01 02:48 am NW 2 3----30.07- 78.6- 73.6---
2026-09-01 02:42 am NW 2 3----30.07- 78.8- 73.6---
2026-09-01 02:36 amNNW 2 3----30.07- 79.0- 73.9---
2026-09-01 02:30 amNNW 2 3----30.07- 79.2- 73.9---
2026-09-01 02:24 am N 1 1----30.07- 79.2- 74.1---
2026-09-01 02:18 am N 1 2----30.07- 79.2- 74.1---
2026-09-01 02:12 am N 2 2----30.07- 79.0- 73.9---
2026-09-01 02:06 am N 2 2----30.07- 78.8- 73.8---
2026-09-01 02:00 amNNW 2 3----30.08-0.01 79.0- 73.8---
2026-09-01 01:54 amNNW 1 2----30.08- 79.2- 73.9---
2026-09-01 01:48 amWNW 1 1----30.08- 79.0- 73.9---
2026-09-01 01:42 amWNW 1 2----30.08- 79.0- 73.9---
2026-09-01 01:36 amWNW 2 2----30.08- 79.0- 73.9---
2026-09-01 01:30 am NW 2 2----30.08- 79.2- 73.8---
2026-09-01 01:24 amWNW 2 2----30.08- 79.3- 73.9---
2026-09-01 01:18 am NW 2 2----30.09- 79.5- 73.9---
2026-09-01 01:12 am NW 2 2----30.09- 79.5- 73.9---
2026-09-01 01:06 am NW 1 1----30.09- 79.5- 74.1---
2026-09-01 01:00 am- 0 1----30.09+0.00 79.5- 73.9---
2026-09-01 12:54 am- 0 1----30.09- 79.3- 73.9---
2026-09-01 12:48 am- 0 1----30.09- 79.5- 74.1---
2026-09-01 12:42 amWNW 1 2----30.09- 79.5- 73.9---
2026-09-01 12:36 amWNW 2 2----30.09- 79.7- 73.8---
2026-09-01 12:30 am NW 1 2----30.09- 79.7- 73.9---
2026-09-01 12:24 am NW 1 2----30.09- 79.9- 73.9---
2026-09-01 12:18 amWNW 2 2----30.09- 79.9- 73.9---
2026-09-01 12:12 amWNW 2 2----30.09- 79.9- 74.1---
2026-09-01 12:06 amWNW 2 2----30.09- 80.1- 73.9---
2026-09-01 12:00 amWNW 2 2----30.09+0.02 80.4- 74.1---
2026-08-31 11:54 pm W 2 2----30.09- 80.6- 74.1---
2026-08-31 11:48 pmWSW 2 4----30.09- 80.8- 74.3---
2026-08-31 11:42 pmSSW 3 5----30.09- 81.0- 74.3---
2026-08-31 11:36 pm S 3 5----30.09- 81.0- 74.3---
2026-08-31 11:30 pmSSW 3 5----30.09- 81.0- 74.5---
2026-08-31 11:24 pm S 3 5----30.09- 81.0- 74.5---
2026-08-31 11:18 pm S 4 6----30.09- 81.1- 74.5---
2026-08-31 11:12 pm S 4 6----30.08- 81.1- 74.5---
2026-08-31 11:06 pm S 4 5----30.09- 81.1- 74.1---
2026-08-31 11:00 pmSSW 3 5----30.09+0.02 81.1- 74.1---
2026-08-31 10:54 pmSSW 3 5----30.09- 81.1- 74.1---
2026-08-31 10:48 pmSSW 3 5----30.09- 81.1- 74.1---
2026-08-31 10:42 pmSSW 3 5----30.09- 81.1- 74.1---
2026-08-31 10:36 pmSSW 3 4----30.09- 81.1- 74.3---
2026-08-31 10:30 pm S 3 5----30.09- 81.3- 74.3---
2026-08-31 10:24 pm S 3 5----30.09- 81.3- 74.3---
2026-08-31 10:18 pm S 3 5----30.09- 81.3- 74.3---
2026-08-31 10:12 pm S 3 5----30.09- 81.3- 74.5---
2026-08-31 10:06 pm S 3 4----30.09- 81.3- 74.5---
2026-08-31 10:00 pm S 3 5----30.09+0.02 81.3- 74.5---
2026-08-31 09:54 pm S 3 5----30.09- 81.5- 74.5---
2026-08-31 09:48 pm S 4 6----30.09- 81.5- 74.5---
2026-08-31 09:42 pm S 4 6----30.08- 81.5- 74.5---
2026-08-31 09:36 pm S 4 6----30.08- 81.5- 74.3---
2026-08-31 09:30 pm S 5 6----30.08- 81.5- 74.1---
2026-08-31 09:24 pm S 5 7----30.07- 81.5- 74.1---
2026-08-31 09:18 pm S 5 6----30.07- 81.7- 74.3---
2026-08-31 09:12 pm S 5 6----30.07- 81.7- 74.3---
2026-08-31 09:06 pm S 5 7----30.07- 81.5- 74.1---
2026-08-31 09:00 pmSSE 5 7----30.07+0.00 81.7- 74.3---
2026-08-31 08:54 pmSSE 6 7----30.07- 81.7- 73.9---
2026-08-31 08:48 pmSSE 6 7----30.06- 81.7- 73.9---
2026-08-31 08:42 pmSSE 6 7----30.06- 81.7- 73.9---
2026-08-31 08:36 pmSSE 6 8----30.06- 81.7- 73.9---
2026-08-31 08:30 pm S 7 9----30.06- 81.7- 73.8---
2026-08-31 08:24 pm S 7 9----30.06- 81.7- 73.9---
2026-08-31 08:18 pm S 7 9----30.06- 81.7- 73.9---
2026-08-31 08:12 pm S 6 8----30.06- 81.7- 74.3---
2026-08-31 08:06 pm S 6 9----30.07- 81.7- 74.1---
2026-08-31 08:00 pm S 6 8----30.07+0.00 81.9- 74.3---
2026-08-31 07:54 pm S 6 8----30.06- 81.9- 74.1---
2026-08-31 07:48 pmSSE 6 7----30.06- 81.9- 74.1---
2026-08-31 07:42 pm S 6 8----30.06- 81.9- 74.1---
2026-08-31 07:36 pmSSE 6 8----30.06- 81.9- 74.3---
2026-08-31 06:30 pmSSE 8 10----30.07- 82.4- 74.1---
2026-08-31 06:24 pmSSE 7 10----30.07- 82.8- 74.3---
2026-08-31 06:18 pmSSE 7 9----30.07- 82.8- 74.5---
2026-08-31 06:12 pmSSE 7 10----30.07- 82.9- 74.3---
2026-08-31 06:06 pmSSE 7 9----30.07- 82.8- 73.9---
2026-08-31 06:00 pmSSE 7 9----30.07-0.02 82.8- 73.9---
2026-08-31 05:54 pmSSE 7 9----30.07- 82.9- 74.3---
2026-08-31 05:48 pmSSE 7 9----30.07- 83.3- 74.5---
2026-08-31 05:42 pmSSE 7 8----30.07- 82.9- 74.1---
2026-08-31 05:36 pmSSE 7 9----30.07- 82.8- 74.3---
2026-08-31 05:30 pmSSE 7 9----30.07- 82.6- 74.1---
2026-08-31 05:24 pmSSE 7 9----30.07- 82.6- 74.1---
2026-08-31 05:18 pmSSE 7 9----30.07- 82.6- 73.9---
2026-08-31 05:12 pmSSE 7 8----30.06- 82.4- 73.9---
2026-08-31 05:06 pmSSE 7 8----30.06- 82.6- 74.1---
2026-08-31 05:00 pmSSE 6 7----30.06-0.04 82.8- 73.9---
2026-08-31 04:54 pmSSE 5 7----30.06- 82.8- 73.9---
2026-08-31 04:48 pm SE 6 8----30.07- 82.8- 74.1---
2026-08-31 04:42 pmSSE 6 8----30.06- 83.1- 74.1---
2026-08-31 04:36 pmSSE 6 8----30.07- 83.3- 74.1---
2026-08-31 04:30 pmSSE 6 8----30.07- 83.3- 74.5---
2026-08-31 04:24 pmSSE 5 7----30.08- 83.1- 74.1---
2026-08-31 04:18 pmSSE 5 6----30.08- 83.1- 74.1---
2026-08-31 04:12 pm SE 5 7----30.08- 82.9- 74.1---
2026-08-31 04:06 pmSSE 5 7----30.08- 82.6- 73.9---
2026-08-31 04:00 pm SE 5 7----30.08-0.04 82.6- 74.1---
2026-08-31 03:54 pm SE 6 8----30.07- 82.4- 73.9---
2026-08-31 03:48 pm SE 6 8----30.08- 82.4- 73.9---
2026-08-31 03:42 pm SE 6 9----30.08- 82.4- 73.8---
2026-08-31 03:36 pm SE 7 9----30.07- 82.4- 73.9---
2026-08-31 03:30 pm SE 7 9----30.07- 82.8- 73.9---
2026-08-31 03:24 pm SE 7 9----30.08- 83.3- 74.1---
2026-08-31 03:18 pmESE 7 10----30.09- 83.3- 74.1---
2026-08-31 03:12 pm SE 8 11----30.09- 83.5- 74.5---
2026-08-31 03:06 pm SE 7 10----30.09- 83.5- 74.5---
2026-08-31 03:00 pm SE 8 11----30.09-0.05 83.1- 74.3---
2026-08-31 02:54 pm SE 9 12----30.09- 82.8- 73.9---
2026-08-31 02:48 pm SE 9 12----30.09- 82.9- 74.1---
2026-08-31 02:42 pm SE 8 11----30.09- 83.1- 73.8---
2026-08-31 02:36 pm SE 8 10----30.10- 82.9- 73.6---
2026-08-31 02:30 pm SE 7 9----30.10- 83.1- 73.9---
2026-08-31 02:24 pm SE 7 10----30.10- 83.3- 73.8---
2026-08-31 02:18 pm SE 7 9----30.11- 83.5- 74.1---
2026-08-31 02:12 pm SE 7 9----30.11- 83.3- 73.9---
2026-08-31 02:06 pm SE 7 9----30.11- 83.3- 74.1---
2026-08-31 02:00 pmESE 7 9----30.11-0.01 83.1- 74.3---
2026-08-31 01:54 pm SE 7 10----30.11- 82.6- 73.9---
2026-08-31 01:48 pm SE 8 10----30.11- 82.6- 73.8---
2026-08-31 01:42 pm SE 8 10----30.11- 82.4- 73.6---
2026-08-31 01:36 pm SE 8 10----30.11- 82.6- 73.6---
2026-08-31 01:30 pm SE 8 10----30.12- 82.6- 73.4---
2026-08-31 01:24 pm SE 8 10----30.12- 82.8- 73.4---
2026-08-31 01:18 pm SE 7 10----30.12- 83.3- 73.6---
2026-08-31 01:12 pm SE 7 9----30.12- 83.1- 73.6---
2026-08-31 01:06 pm SE 7 10----30.12- 82.8- 73.4---
2026-08-31 01:00 pm SE 8 10----30.12+0.00 82.6- 73.4---
2026-08-31 12:54 pm SE 8 10----30.12- 82.6- 73.2---
2026-08-31 12:48 pm SE 7 10----30.12- 82.8- 73.6---
2026-08-31 12:42 pmESE 8 10----30.13- 82.8- 73.4---
2026-08-31 12:36 pmESE 8 11----30.13- 82.2- 73.0---
2026-08-31 12:30 pmESE 9 10----30.13- 81.9- 72.9---
2026-08-31 12:24 pmESE 8 10----30.13- 82.0- 73.0---
2026-08-31 12:18 pmESE 8 10----30.13- 81.9- 72.9---
2026-08-31 12:12 pmESE 9 10----30.13- 81.7- 72.5---
2026-08-31 12:06 pmESE 9 10----30.14- 81.5- 72.5---
2026-08-31 12:00 pmESE 8 10----30.14+0.02 81.5- 72.5---
2026-08-31 11:54 amESE 9 11----30.14- 81.3- 72.7---
2026-08-31 11:48 amESE 8 10----30.14- 81.3- 73.0---
2026-08-31 11:42 amESE 8 10----30.13- 81.5- 73.2---
2026-08-31 11:36 am E 7 9----30.13- 81.9- 73.9---
2026-08-31 11:30 amESE 7 9----30.13- 81.5- 73.9---
2026-08-31 11:24 amESE 7 9----30.13- 81.7- 73.9---
2026-08-31 11:18 am E 5 8----30.13- 82.2- 74.5---
2026-08-31 11:12 am E 5 7----30.12- 82.2- 74.3---
2026-08-31 11:06 am E 5 7----30.12- 82.0- 74.3---
2026-08-31 11:00 am E 5 6----30.12+0.02 82.2- 74.1---
2026-08-31 10:54 am E 4 6----30.12- 82.4- 74.5---
2026-08-31 10:48 am E 4 7----30.12- 82.2- 74.3---
2026-08-31 10:42 am E 4 7----30.12- 81.9- 74.1---
2026-08-31 10:36 am E 4 6----30.12- 81.7- 74.1---
2026-08-31 10:30 am E 4 6----30.12- 81.5- 73.9---
2026-08-31 10:24 am E 4 6----30.12- 81.7- 74.3---
2026-08-31 10:18 am E 5 7----30.12- 80.8- 73.8---
2026-08-31 10:12 amENE 5 7----30.12- 80.4- 73.4---
2026-08-31 10:06 amENE 5 7----30.12- 80.4- 73.4---
2026-08-31 10:00 am E 5 7----30.12+0.02 80.4- 73.6---
2026-08-31 09:54 amENE 5 7----30.11- 80.1- 73.6---
2026-08-31 09:48 amENE 5 7----30.12- 80.2- 73.6---
2026-08-31 09:42 amENE 5 7----30.11- 79.7- 73.6---
2026-08-31 09:36 am NE 5 7----30.11- 79.3- 73.2---
2026-08-31 09:30 am NE 5 8----30.11- 79.3- 73.0---
2026-08-31 09:24 am NE 4 6----30.11- 79.3- 73.2---
2026-08-31 09:18 am NE 4 7----30.11- 79.0- 73.2---
2026-08-31 09:12 amNNE 4 8----30.11- 78.6- 73.2---
2026-08-31 09:06 amNNE 4 7----30.11- 77.9- 72.9---
2026-08-31 09:00 amNNE 4 7----30.11+0.03 77.5- 72.7---
2026-08-31 08:54 amNNE 3 5----30.11- 77.4- 72.7---
2026-08-31 08:48 amNNE 4 6----30.11- 77.0- 72.3---
2026-08-31 08:42 amNNE 4 6----30.11- 77.0- 72.3---
2026-08-31 08:36 am NE 4 6----30.11- 77.0- 72.1---
2026-08-31 08:30 am NE 4 7----30.12- 76.8- 72.3---
2026-08-31 08:24 am NE 4 6----30.11- 76.5- 72.0---
2026-08-31 08:18 am NE 4 6----30.11- 76.3- 71.8---
2026-08-31 08:12 am NE 5 7----30.11- 75.9- 71.6---
2026-08-31 08:06 amNNE 4 7----30.11- 75.9- 71.4---
2026-08-31 08:00 amNNE 4 7----30.11+0.04 75.7- 71.4---
2026-08-31 07:54 am NE 5 9----30.10- 75.7- 71.4---
2026-08-31 07:48 am NE 5 7----30.10- 75.7- 71.2---
2026-08-31 07:42 amNNE 4 6----30.10- 75.6- 71.1---
2026-08-31 07:36 am NE 4 6----30.10- 75.4- 71.1---
2026-08-31 07:30 am NE 5 8----30.10- 75.4- 70.7---
2026-08-31 07:24 am NE 5 8----30.10- 75.6- 71.2---
2026-08-31 07:18 amNNE 5 8----30.10- 75.6- 71.1---
2026-08-31 07:12 amNNE 4 7----30.10- 75.6- 71.1---
2026-08-31 07:06 amNNE 6 9----30.10- 75.6- 71.2---
2026-08-31 07:00 amNNE 5 8----30.10+0.03 75.9- 71.6---
2026-08-31 06:54 amNNE 4 7----30.09- 75.9- 71.6---